Погода в Симбирке

Россия / Кемеровская область (Кузбасс)     56°02′44″N   87°10′08″E
темп.,
°C
ветер,
м/с
пор.,
м/с
влажн.,
%
обл.,
%
осадки,
мм/ч
давл.,
гПа
погр.,
м
16 мая, вс
вс1601:00+13юз2795100 20.7 1015224
04:00+11юз1197100 0.2 101565
07:00+12всв1295100 0.6 1014223
10:00+12всв2394100 0.3 1014319
13:00+12всв3494100 0.6 1012307
16:00+11св3695100 6.3 1011362
19:00+11св3496100 6.8 1011392
22:00+9св3696100 0.0 1011327
17 мая, пн
пн1701:00+8св2694100 0.0 1013287
04:00+7ссв259070 0.0 1013203
07:00+8ссв368490 0.0 1016311
10:00+10всв2360100 0.0 1016631
13:00+14св124999 0.0 10161113
16:00+15сз2449100 0.0 10161721
19:00+14зсз2356100 0.0 10151054
22:00+11ю227193 0.0 101445
18 мая, вт
вт1801:00+10ююз3979100 0.0 1012207
04:00+11юз51391100 0.9 1009622
07:00+11юз41392100 1.3 1007593
10:00+13юз51190100 0.8 1004644
13:00+14зюз389194 2.1 1004547
16:00+14ссз479196 2.1 1003377
19:00+10ссв4695100 4.4 1004426
22:00+8св3695100 0.5 1007513
19 мая, ср
ср1901:00+7ссв3595100 0.5 1007355
04:00+7ссв3795100 0.1 1007436
07:00+7св3793100 0.1 1007377
10:00+8ссв5861100 0.0 1007660
13:00+11ссв5642100 0.0 10061585
16:00+11с6737100 0.0 10062125
19:00+9с6944100 0.0 10081398
22:00+6с5114471 0.0 1009698
20 мая, чт
чт2001:00+2ссз310590 0.0 1010248
04:000сз39715 0.0 1011233
07:00+2ссз4763100 0.0 1013464
10:00+5ссз564683 0.0 10141637
13:00+7сз6633100 0.0 10142613
16:00+8сз6641100 0.0 10152294
19:00+3сз4897100 1.3 1016631
22:00+2с389495 1.9 1018613